[keps] orb08332.amsat

Ray Hoad r.hoad at att.net
Thu Nov 27 07:59:26 PST 2008


SB KEPS @ AMSAT  $ORB08332.O
Orbital Elements  08332.OSCAR

HR AMSAT ORBITAL ELEMENTS FOR OSCAR SATELLITES
FROM WA5QGD FORT WORTH,TX November 27, 2008
Send Subscribe/unsubscribe to KEPS at 
http://www.amsat.org/mailman/listinfo/keps
BID: ORB08332.O
TO ALL RADIO AMATEURS BT

Satellite: AO-07
Catalog number: 07530
Epoch time:      08332.01892997
Element set:     337
Inclination:      101.4496 deg
RA of node:       357.9654 deg
Eccentricity:    0.0011751
Arg of perigee:   304.4314 deg
Mean anomaly:     055.5643 deg
Mean motion:   12.53574594 rev/day
Decay rate:       -2.7e-07 rev/day^2
Epoch rev:           55738
Checksum:              316

Satellite: AO-10
Catalog number: 14129
Epoch time:      08329.87329138
Element set:     593
Inclination:      026.0360 deg
RA of node:       184.3129 deg
Eccentricity:    0.5958096
Arg of perigee:   176.1935 deg
Mean anomaly:     192.0627 deg
Mean motion:   02.05868276 rev/day
Decay rate:       1.02e-06 rev/day^2
Epoch rev:           19141
Checksum:              317

Satellite: UO-11
Catalog number: 14781
Epoch time:      08331.82102495
Element set:     823
Inclination:      098.1367 deg
RA of node:       008.1257 deg
Eccentricity:    0.0008080
Arg of perigee:   270.7762 deg
Mean anomaly:     089.2534 deg
Mean motion:   14.79680387 rev/day
Decay rate:       3.71e-06 rev/day^2
Epoch rev:           32790
Checksum:              312

Satellite: RS-15
Catalog number: 23439
Epoch time:      08329.45702810
Element set:     161
Inclination:      064.8172 deg
RA of node:       235.8807 deg
Eccentricity:    0.0145645
Arg of perigee:   091.6503 deg
Mean anomaly:     270.1108 deg
Mean motion:   11.27552774 rev/day
Decay rate:       -3.9e-07 rev/day^2
Epoch rev:           57303
Checksum:              296

Satellite: FO-29
Catalog number: 24278
Epoch time:      08332.18743250
Element set:     911
Inclination:      098.5775 deg
RA of node:       227.0619 deg
Eccentricity:    0.0351175
Arg of perigee:   153.4766 deg
Mean anomaly:     208.4841 deg
Mean motion:   13.52940258 rev/day
Decay rate:        3.0e-07 rev/day^2
Epoch rev:           60643
Checksum:              312

Satellite: SO-33
Catalog number: 25509
Epoch time:      08331.56367696
Element set:     332
Inclination:      031.4315 deg
RA of node:       118.2113 deg
Eccentricity:    0.0354666
Arg of perigee:   006.8425 deg
Mean anomaly:     353.6878 deg
Mean motion:   14.28231279 rev/day
Decay rate:        8.1e-07 rev/day^2
Epoch rev:           52684
Checksum:              311

Satellite: AO-40
Catalog number: 26609
Epoch time:      08330.35770983
Element set:     158
Inclination:      008.1690 deg
RA of node:       047.0418 deg
Eccentricity:    0.7938854
Arg of perigee:   148.5374 deg
Mean anomaly:     303.8930 deg
Mean motion:   01.25586293 rev/day
Decay rate:      -1.31e-06 rev/day^2
Epoch rev:            3706
Checksum:              320

Satellite: VO-52
Catalog number: 28650
Epoch time:      08332.38166184
Element set:      90
Inclination:      097.7716 deg
RA of node:       034.3426 deg
Eccentricity:    0.0026602
Arg of perigee:   330.6802 deg
Mean anomaly:     029.2877 deg
Mean motion:   14.81524695 rev/day
Decay rate:      -1.22e-06 rev/day^2
Epoch rev:           19276
Checksum:              308

Satellite: PO-63
Catalog number: 29712
Epoch time:      08332.47047290
Element set:       6
Inclination:      097.8581 deg
RA of node:       027.4353 deg
Eccentricity:    0.0013495
Arg of perigee:   207.7991 deg
Mean anomaly:     152.2505 deg
Mean motion:   14.80349708 rev/day
Decay rate:       5.29e-06 rev/day^2
Epoch rev:           10162
Checksum:              304

/EX
SB KEPS @ AMSAT  $ORB08332.D
Orbital Elements  08332.MICROS

HR AMSAT ORBITAL ELEMENTS FOR THE MICROSATS
FROM WA5QGD FORT WORTH,TX November 27, 2008
Send Subscribe/unsubscribe to KEPS at 
http://www.amsat.org/mailman/listinfo/keps
BID: ORB08332.D
TO ALL RADIO AMATEURS BT

Satellite: AO-16
Catalog number: 20439
Epoch time:      08330.98835895
Element set:     472
Inclination:      098.2520 deg
RA of node:       302.9556 deg
Eccentricity:    0.0011878
Arg of perigee:   057.0515 deg
Mean anomaly:     303.1811 deg
Mean motion:   14.31809123 rev/day
Decay rate:        1.6e-07 rev/day^2
Epoch rev:           98407
Checksum:              306

Satellite: LO-19
Catalog number: 20442
Epoch time:      08332.05694336
Element set:     397
Inclination:      098.2177 deg
RA of node:       311.9842 deg
Eccentricity:    0.0012719
Arg of perigee:   051.7343 deg
Mean anomaly:     308.4983 deg
Mean motion:   14.32046677 rev/day
Decay rate:        1.6e-07 rev/day^2
Epoch rev:           98438
Checksum:              323

Satellite: AO-27
Catalog number: 22825
Epoch time:      08331.89720819
Element set:     116
Inclination:      098.4081 deg
RA of node:       286.0046 deg
Eccentricity:    0.0008872
Arg of perigee:   135.8167 deg
Mean anomaly:     224.3730 deg
Mean motion:   14.29252733 rev/day
Decay rate:        1.9e-07 rev/day^2
Epoch rev:           79101
Checksum:              305

Satellite: IO-26
Catalog number: 22826
Epoch time:      08332.06288303
Element set:     831
Inclination:      098.4015 deg
RA of node:       287.0024 deg
Eccentricity:    0.0009498
Arg of perigee:   132.1713 deg
Mean anomaly:     228.0286 deg
Mean motion:   14.29502730 rev/day
Decay rate:      .00000000 rev/day^2
Epoch rev:           79113
Checksum:              269

Satellite: GO-32
Catalog number: 25397
Epoch time:      08332.01164181
Element set:     757
Inclination:      098.3478 deg
RA of node:       358.9906 deg
Eccentricity:    0.0002039
Arg of perigee:   109.9751 deg
Mean anomaly:     250.1644 deg
Mean motion:   14.23150842 rev/day
Decay rate:      -1.39e-06 rev/day^2
Epoch rev:           53937
Checksum:              316

Satellite: NO-44
Catalog number: 26931
Epoch time:      08332.16142428
Element set:      36
Inclination:      067.0524 deg
RA of node:       224.8079 deg
Eccentricity:    0.0006540
Arg of perigee:   255.1211 deg
Mean anomaly:     104.9173 deg
Mean motion:   14.29539134 rev/day
Decay rate:       -5.3e-07 rev/day^2
Epoch rev:           37370
Checksum:              276

Satellite: SO-50
Catalog number: 27607
Epoch time:      08329.27280826
Element set:     752
Inclination:      064.5594 deg
RA of node:       287.4455 deg
Eccentricity:    0.0084175
Arg of perigee:   248.1621 deg
Mean anomaly:     111.0452 deg
Mean motion:   14.71398009 rev/day
Decay rate:        9.1e-07 rev/day^2
Epoch rev:           31852
Checksum:              311

Satellite: CO-55
Catalog number: 27844
Epoch time:      08331.71372129
Element set:     450
Inclination:      098.7165 deg
RA of node:       337.7325 deg
Eccentricity:    0.0010269
Arg of perigee:   013.1283 deg
Mean anomaly:     347.0149 deg
Mean motion:   14.20608464 rev/day
Decay rate:        2.7e-07 rev/day^2
Epoch rev:           28051
Checksum:              292

Satellite: CO-57
Catalog number: 27848
Epoch time:      08331.59288064
Element set:     401
Inclination:      098.7168 deg
RA of node:       336.6839 deg
Eccentricity:    0.0010320
Arg of perigee:   015.3749 deg
Mean anomaly:     344.7728 deg
Mean motion:   14.20414953 rev/day
Decay rate:        1.8e-07 rev/day^2
Epoch rev:           28046
Checksum:              323

Satellite: AO-51
Catalog number: 28375
Epoch time:      08331.92145451
Element set:     253
Inclination:      098.0603 deg
RA of node:       347.2592 deg
Eccentricity:    0.0085069
Arg of perigee:   019.5075 deg
Mean anomaly:     340.9337 deg
Mean motion:   14.40625769 rev/day
Decay rate:        1.7e-07 rev/day^2
Epoch rev:           23183
Checksum:              309

Satellite: CO-56
Catalog number: 28941
Epoch time:      08332.48461418
Element set:     589
Inclination:      098.1217 deg
RA of node:       106.7342 deg
Eccentricity:    0.0137124
Arg of perigee:   164.1998 deg
Mean anomaly:     196.3694 deg
Mean motion:   15.66077361 rev/day
Decay rate:     5.8358e-04 rev/day^2
Epoch rev:           15551
Checksum:              350

Satellite: CP3
Catalog number: 31128
Epoch time:      08331.07288797
Element set:     491
Inclination:      098.0220 deg
RA of node:       027.4975 deg
Eccentricity:    0.0102747
Arg of perigee:   193.5490 deg
Mean anomaly:     166.2948 deg
Mean motion:   14.51994960 rev/day
Decay rate:       -4.7e-07 rev/day^2
Epoch rev:            8542
Checksum:              327

Satellite: CP4
Catalog number: 31132
Epoch time:      08331.16534127
Element set:     468
Inclination:      098.0236 deg
RA of node:       030.5511 deg
Eccentricity:    0.0085772
Arg of perigee:   184.5021 deg
Mean anomaly:     175.5415 deg
Mean motion:   14.55160743 rev/day
Decay rate:       -3.0e-08 rev/day^2
Epoch rev:            8550
Checksum:              266

Satellite: CO-65
Catalog number: 32785
Epoch time:      08332.44373972
Element set:     221
Inclination:      097.9750 deg
RA of node:       031.7851 deg
Eccentricity:    0.0014480
Arg of perigee:   330.7311 deg
Mean anomaly:     029.3094 deg
Mean motion:   14.81419846 rev/day
Decay rate:       1.37e-06 rev/day^2
Epoch rev:            3157
Checksum:              303

/EX
SB KEPS @ AMSAT  $ORB08332.W
Orbital Elements  08332.WEATHER

HR AMSAT ORBITAL ELEMENTS FOR WEATHER SATELLITES
FROM WA5QGD FORT WORTH,TX November 27, 2008
Send Subscribe/unsubscribe to KEPS at 
http://www.amsat.org/mailman/listinfo/keps
BID: ORB08332.W
TO ALL RADIO AMATEURS BT

Satellite: NOAA-10
Catalog number: 16969
Epoch time:      08332.48484862
Element set:     386
Inclination:      098.7111 deg
RA of node:       354.0402 deg
Eccentricity:    0.0013126
Arg of perigee:   066.3614 deg
Mean anomaly:     293.8945 deg
Mean motion:   14.27373840 rev/day
Decay rate:       -1.0e-08 rev/day^2
Epoch rev:           15473
Checksum:              306

